Time,TemperatureF,DewpointF,PressureIn,WindDirection,WindDirectionDegrees,WindSpeedMPH,WindSpeedGustMPH,Humidity,HourlyPrecipIn,Conditions,Clouds,dailyrainin,SolarRadiationWatts/m^2,SoftwareType,DateUTC
2013-03-05 00:00:00,64.4,57.7,26.00,SE,143,1.0,4.0,79,0.00,,,0.00,0,Wunderground v.1.15,2013-03-05 06:00:00,
2013-03-05 00:05:00,64.4,57.7,26.00,ESE,109,2.0,4.0,79,0.00,,,0.00,0,Wunderground v.1.15,2013-03-05 06:05:00,
2013-03-05 00:15:00,64.4,57.7,26.00,SE,132,2.0,3.0,79,0.00,,,0.00,0,Wunderground v.1.15,2013-03-05 06:15:00,
2013-03-05 00:20:00,64.4,57.7,25.99,SSE,159,3.0,4.0,79,0.00,,,0.00,0,Wunderground v.1.15,2013-03-05 06:20:00,
2013-03-05 00:25:00,64.6,57.9,25.99,East,86,3.0,5.0,79,0.00,,,0.00,0,Wunderground v.1.15,2013-03-05 06:25:00,
2013-03-05 00:30:00,64.6,57.9,25.99,North,5,2.0,4.0,79,0.00,,,0.00,0,Wunderground v.1.15,2013-03-05 06:30:00,
2013-03-05 00:35:00,64.4,58.1,25.99,East,89,2.0,4.0,80,0.00,,,0.00,0,Wunderground v.1.15,2013-03-05 06:35:00,
2013-03-05 00:45:00,64.4,58.4,25.99,ENE,78,2.0,2.0,81,0.00,,,0.00,0,Wunderground v.1.15,2013-03-05 06:45:00,
2013-03-05 00:55:00,64.2,58.2,25.98,ESE,113,2.0,2.0,81,0.00,,,0.00,0,Wunderground v.1.15,2013-03-05 06:55:00,
2013-03-05 01:00:00,64.2,58.2,25.98,ESE,107,3.0,3.0,81,0.00,,,0.00,0,Wunderground v.1.15,2013-03-05 07:00:00,
2013-03-05 01:05:00,64.2,58.2,25.98,SE,134,3.0,5.0,81,0.00,,,0.00,0,Wunderground v.1.15,2013-03-05 07:05:00,
2013-03-05 01:10:00,64.2,58.2,25.98,ENE,65,3.0,3.0,81,0.00,,,0.00,0,Wunderground v.1.15,2013-03-05 07:10:00,
2013-03-05 01:15:00,64.1,58.1,25.97,SE,128,3.0,3.0,81,0.00,,,0.00,0,Wunderground v.1.15,2013-03-05 07:15:00,
2013-03-05 01:20:00,64.1,58.5,25.97,SE,126,2.0,6.0,82,0.00,,,0.00,0,Wunderground v.1.15,2013-03-05 07:20:00,
2013-03-05 01:30:00,63.9,58.3,25.97,East,94,3.0,4.0,82,0.00,,,0.00,0,Wunderground v.1.15,2013-03-05 07:30:00,
2013-03-05 01:35:00,63.8,58.5,25.96,SSE,155,2.0,4.0,83,0.00,,,0.00,0,Wunderground v.1.15,2013-03-05 07:35:00,
2013-03-05 01:40:00,63.8,58.5,25.96,ESE,119,1.0,1.0,83,0.00,,,0.00,0,Wunderground v.1.15,2013-03-05 07:40:00,
2013-03-05 01:50:00,63.6,58.3,25.96,SE,126,0.0,0.0,83,0.00,,,0.00,0,Wunderground v.1.15,2013-03-05 07:50:00,
2013-03-05 01:55:00,63.4,58.1,25.96,SE,126,0.0,2.0,83,0.00,,,0.00,0,Wunderground v.1.15,2013-03-05 07:55:00,
2013-03-05 02:00:00,63.4,58.1,25.96,SE,126,0.0,0.0,83,0.00,,,0.00,0,Wunderground v.1.15,2013-03-05 08:00:00,
2013-03-05 02:10:00,63.6,58.3,25.96,South,169,1.0,4.0,83,0.00,,,0.00,0,Wunderground v.1.15,2013-03-05 08:10:00,
2013-03-05 02:15:00,63.8,58.5,25.96,South,180,1.0,4.0,83,0.00,,,0.00,0,Wunderground v.1.15,2013-03-05 08:15:00,
2013-03-05 02:20:00,63.8,58.5,25.96,SSE,157,1.0,1.0,83,0.00,,,0.00,0,Wunderground v.1.15,2013-03-05 08:20:00,
2013-03-05 02:25:00,63.8,58.5,25.96,NNE,31,1.0,1.0,83,0.00,,,0.00,0,Wunderground v.1.15,2013-03-05 08:25:00,
2013-03-05 02:30:00,63.8,58.5,25.95,SE,142,1.0,2.0,83,0.00,,,0.00,0,Wunderground v.1.15,2013-03-05 08:30:00,
2013-03-05 02:35:00,63.8,58.5,25.95,ESE,121,2.0,2.0,83,0.00,,,0.00,0,Wunderground v.1.15,2013-03-05 08:35:00,
2013-03-05 02:45:00,63.9,58.3,25.95,SSE,157,1.0,2.0,82,0.00,,,0.00,0,Wunderground v.1.15,2013-03-05 08:45:00,
2013-03-05 02:50:00,63.9,58.3,25.95,SSE,152,2.0,2.0,82,0.00,,,0.00,0,Wunderground v.1.15,2013-03-05 08:50:00,
2013-03-05 02:55:00,63.9,58.3,25.95,ENE,71,3.0,3.0,82,0.00,,,0.00,0,Wunderground v.1.15,2013-03-05 08:55:00,
2013-03-05 03:00:00,63.8,58.5,25.95,ESE,123,3.0,3.0,83,0.00,,,0.00,0,Wunderground v.1.15,2013-03-05 09:00:00,
2013-03-05 03:10:00,63.4,58.1,25.95,SE,136,2.0,2.0,83,0.00,,,0.00,0,Wunderground v.1.15,2013-03-05 09:10:00,
2013-03-05 03:15:00,63.4,58.1,25.95,SE,136,1.0,2.0,83,0.00,,,0.00,0,Wunderground v.1.15,2013-03-05 09:15:00,
2013-03-05 03:20:00,63.3,58.4,25.95,SE,136,1.0,1.0,84,0.00,,,0.00,0,Wunderground v.1.15,2013-03-05 09:20:00,
2013-03-05 03:25:00,63.3,58.4,25.96,SE,136,0.0,2.0,84,0.00,,,0.00,0,Wunderground v.1.15,2013-03-05 09:25:00,
2013-03-05 03:30:00,63.3,58.0,25.95,SSE,153,1.0,1.0,83,0.00,,,0.00,0,Wunderground v.1.15,2013-03-05 09:30:00,
2013-03-05 03:40:00,63.4,58.1,25.96,SSE,148,1.0,1.0,83,0.00,,,0.00,0,Wunderground v.1.15,2013-03-05 09:40:00,
2013-03-05 03:45:00,63.4,58.1,25.96,WNW,302,1.0,1.0,83,0.00,,,0.00,0,Wunderground v.1.15,2013-03-05 09:45:00,
2013-03-05 03:50:00,63.4,58.1,25.96,South,180,0.0,0.0,83,0.00,,,0.00,0,Wunderground v.1.15,2013-03-05 09:50:00,
2013-03-05 04:00:00,63.6,58.0,25.97,SSE,161,2.0,2.0,82,0.00,,,0.00,0,Wunderground v.1.15,2013-03-05 10:00:00,
2013-03-05 04:05:00,63.6,58.0,25.97,SSE,161,1.0,2.0,82,0.00,,,0.00,0,Wunderground v.1.15,2013-03-05 10:05:00,
2013-03-05 04:10:00,63.6,58.0,25.96,SE,146,1.0,4.0,82,0.00,,,0.00,0,Wunderground v.1.15,2013-03-05 10:10:00,
2013-03-05 04:15:00,63.6,58.0,25.97,SSE,149,2.0,4.0,82,0.00,,,0.00,0,Wunderground v.1.15,2013-03-05 10:15:00,
2013-03-05 04:25:00,63.6,58.3,25.97,SE,140,1.0,2.0,83,0.00,,,0.00,0,Wunderground v.1.15,2013-03-05 10:25:00,
2013-03-05 04:30:00,63.6,58.3,25.97,SSE,158,1.0,2.0,83,0.00,,,0.00,0,Wunderground v.1.15,2013-03-05 10:30:00,
2013-03-05 04:35:00,63.4,57.8,25.97,SSE,148,1.0,2.0,82,0.00,,,0.00,0,Wunderground v.1.15,2013-03-05 10:35:00,
2013-03-05 04:40:00,63.6,58.3,25.98,East,92,2.0,2.0,83,0.00,,,0.00,0,Wunderground v.1.15,2013-03-05 10:40:00,
2013-03-05 04:45:00,63.6,58.0,25.98,NE,52,2.0,2.0,82,0.00,,,0.00,0,Wunderground v.1.15,2013-03-05 10:45:00,
2013-03-05 04:55:00,63.6,58.0,25.98,SSE,168,2.0,2.0,82,0.00,,,0.00,0,Wunderground v.1.15,2013-03-05 10:55:00,
2013-03-05 05:00:00,63.8,58.2,25.99,ENE,65,2.0,2.0,82,0.00,,,0.00,0,Wunderground v.1.15,2013-03-05 11:00:00,
2013-03-05 05:05:00,63.6,58.0,25.99,SE,128,1.0,2.0,82,0.00,,,0.00,0,Wunderground v.1.15,2013-03-05 11:05:00,
2013-03-05 05:10:00,63.8,58.2,25.99,SE,130,1.0,1.0,82,0.00,,,0.00,0,Wunderground v.1.15,2013-03-05 11:10:00,
2013-03-05 05:15:00,63.8,58.2,25.99,ESE,109,1.0,1.0,82,0.00,,,0.00,0,Wunderground v.1.15,2013-03-05 11:15:00,
2013-03-05 05:20:00,63.8,58.2,25.99,ENE,62,1.0,3.0,82,0.00,,,0.00,0,Wunderground v.1.15,2013-03-05 11:20:00,
2013-03-05 05:30:00,63.6,58.3,25.99,SE,132,3.0,3.0,83,0.00,,,0.00,0,Wunderground v.1.15,2013-03-05 11:30:00,
2013-03-05 05:35:00,63.4,58.1,25.99,SE,137,2.0,3.0,83,0.00,,,0.00,0,Wunderground v.1.15,2013-03-05 11:35:00,
2013-03-05 05:40:00,63.4,58.1,26.00,East,101,2.0,2.0,83,0.00,,,0.00,0,Wunderground v.1.15,2013-03-05 11:40:00,
2013-03-05 05:45:00,63.3,58.0,26.00,SSE,167,1.0,2.0,83,0.00,,,0.00,0,Wunderground v.1.15,2013-03-05 11:45:00,
2013-03-05 05:50:00,63.3,58.0,26.00,ESE,116,1.0,2.0,83,0.00,,,0.00,0,Wunderground v.1.15,2013-03-05 11:50:00,
2013-03-05 06:00:00,63.3,58.0,26.00,ESE,113,1.0,1.0,83,0.00,,,0.00,12,Wunderground v.1.15,2013-03-05 12:00:00,
2013-03-05 06:10:00,63.3,58.4,26.00,SSE,150,1.0,2.0,84,0.00,,,0.00,19,Wunderground v.1.15,2013-03-05 12:10:00,
2013-03-05 06:15:00,63.4,58.1,26.00,SSE,154,2.0,2.0,83,0.00,,,0.00,23,Wunderground v.1.15,2013-03-05 12:15:00,
2013-03-05 06:20:00,63.6,58.3,26.00,SSE,161,3.0,4.0,83,0.00,,,0.00,30,Wunderground v.1.15,2013-03-05 12:20:00,
2013-03-05 06:25:00,63.6,58.3,26.00,SSE,150,3.0,4.0,83,0.00,,,0.00,35,Wunderground v.1.15,2013-03-05 12:25:00,
2013-03-05 06:35:00,63.8,58.5,26.00,SE,146,2.0,2.0,83,0.00,,,0.00,53,Wunderground v.1.15,2013-03-05 12:35:00,
2013-03-05 06:40:00,63.9,58.6,26.01,SE,131,2.0,2.0,83,0.00,,,0.00,67,Wunderground v.1.15,2013-03-05 12:40:00,
2013-03-05 06:45:00,64.1,58.5,26.01,ENE,64,1.0,4.0,82,0.00,,,0.00,79,Wunderground v.1.15,2013-03-05 12:45:00,
2013-03-05 06:50:00,64.1,58.5,26.01,SE,126,2.0,4.0,82,0.00,,,0.00,93,Wunderground v.1.15,2013-03-05 12:50:00,
2013-03-05 06:55:00,64.4,58.8,26.01,East,98,3.0,5.0,82,0.00,,,0.00,107,Wunderground v.1.15,2013-03-05 12:55:00,
2013-03-05 07:00:00,64.7,59.1,26.01,SSE,160,3.0,3.0,82,0.00,,,0.00,134,Wunderground v.1.15,2013-03-05 13:00:00,
2013-03-05 07:10:00,65.2,58.9,26.01,East,88,4.0,4.0,80,0.00,,,0.00,156,Wunderground v.1.15,2013-03-05 13:10:00,
2013-03-05 07:15:00,65.4,59.1,26.02,ESE,103,3.0,4.0,80,0.00,,,0.00,142,Wunderground v.1.15,2013-03-05 13:15:00,
2013-03-05 07:20:00,65.5,59.2,26.01,SE,146,2.0,2.0,80,0.00,,,0.00,158,Wunderground v.1.15,2013-03-05 13:20:00,
2013-03-05 07:25:00,65.7,59.4,26.01,SE,127,2.0,4.0,80,0.00,,,0.00,163,Wunderground v.1.15,2013-03-05 13:25:00,
2013-03-05 07:30:00,65.9,59.2,26.01,ESE,108,2.0,4.0,79,0.00,,,0.00,195,Wunderground v.1.15,2013-03-05 13:30:00,
2013-03-05 07:35:00,66.0,59.3,26.01,South,175,3.0,6.0,79,0.00,,,0.00,195,Wunderground v.1.15,2013-03-05 13:35:00,
2013-03-05 07:45:00,65.9,59.6,26.01,East,95,4.0,8.0,80,0.00,,,0.00,225,Wunderground v.1.15,2013-03-05 13:45:00,
2013-03-05 07:50:00,66.0,59.3,26.01,SE,131,4.0,4.0,79,0.00,,,0.00,294,Wunderground v.1.15,2013-03-05 13:50:00,
2013-03-05 07:55:00,66.5,59.4,26.02,SSE,151,4.0,4.0,78,0.00,,,0.00,279,Wunderground v.1.15,2013-03-05 13:55:00,
2013-03-05 08:00:00,66.8,59.4,26.02,East,96,4.0,4.0,77,0.00,,,0.00,250,Wunderground v.1.15,2013-03-05 14:00:00,
2013-03-05 08:10:00,67.7,59.5,26.02,SSE,151,3.0,3.0,75,0.00,,,0.00,329,Wunderground v.1.15,2013-03-05 14:10:00,
2013-03-05 08:15:00,68.0,59.4,26.02,SE,138,3.0,6.0,74,0.00,,,0.00,322,Wunderground v.1.15,2013-03-05 14:15:00,
2013-03-05 08:20:00,68.5,59.9,26.02,ESE,111,3.0,3.0,74,0.00,,,0.00,258,Wunderground v.1.15,2013-03-05 14:20:00,
2013-03-05 08:25:00,69.3,59.5,26.02,SSE,150,3.0,5.0,71,0.00,,,0.00,265,Wunderground v.1.15,2013-03-05 14:25:00,
2013-03-05 08:35:00,69.7,59.9,26.02,ESE,119,4.0,6.0,71,0.00,,,0.00,283,Wunderground v.1.15,2013-03-05 14:35:00,
2013-03-05 08:40:00,69.5,59.7,26.02,SE,140,4.0,4.0,71,0.00,,,0.00,199,Wunderground v.1.15,2013-03-05 14:40:00,
2013-03-05 08:45:00,69.3,59.5,26.02,SE,128,4.0,4.0,71,0.00,,,0.00,239,Wunderground v.1.15,2013-03-05 14:45:00,
2013-03-05 08:50:00,69.3,59.5,26.03,ENE,63,3.0,3.0,71,0.00,,,0.00,425,Wunderground v.1.15,2013-03-05 14:50:00,
2013-03-05 08:55:00,69.5,59.7,26.03,NE,48,2.0,3.0,71,0.00,,,0.00,241,Wunderground v.1.15,2013-03-05 14:55:00,
2013-03-05 09:05:00,69.3,59.9,26.03,NE,36,2.0,3.0,72,0.00,,,0.00,190,Wunderground v.1.15,2013-03-05 15:05:00,
2013-03-05 09:15:00,69.0,60.4,26.03,WSW,242,3.0,3.0,74,0.00,,,0.00,246,Wunderground v.1.15,2013-03-05 15:15:00,
2013-03-05 09:20:00,69.0,60.0,26.03,ESE,106,2.0,5.0,73,0.00,,,0.00,255,Wunderground v.1.15,2013-03-05 15:20:00,
2013-03-05 09:25:00,69.3,60.3,26.03,East,101,2.0,7.0,73,0.00,,,0.00,213,Wunderground v.1.15,2013-03-05 15:25:00,
2013-03-05 09:30:00,69.2,60.6,26.03,ENE,70,3.0,3.0,74,0.00,,,0.00,195,Wunderground v.1.15,2013-03-05 15:30:00,
2013-03-05 09:35:00,69.2,60.2,26.03,ENE,61,4.0,4.0,73,0.00,,,0.00,174,Wunderground v.1.15,2013-03-05 15:35:00,
2013-03-05 09:40:00,68.8,60.2,26.03,NNE,13,4.0,4.0,74,0.00,,,0.00,188,Wunderground v.1.15,2013-03-05 15:40:00,
2013-03-05 09:45:00,68.5,60.3,26.03,NE,51,3.0,4.0,75,0.00,,,0.00,174,Wunderground v.1.15,2013-03-05 15:45:00,
2013-03-05 09:55:00,68.2,60.3,26.03,NW,315,3.0,3.0,76,0.00,,,0.00,176,Wunderground v.1.15,2013-03-05 15:55:00,
2013-03-05 10:00:00,68.2,60.3,26.02,East,95,4.0,4.0,76,0.00,,,0.00,213,Wunderground v.1.15,2013-03-05 16:00:00,
2013-03-05 10:05:00,68.2,60.3,26.02,SE,136,4.0,5.0,76,0.00,,,0.00,267,Wunderground v.1.15,2013-03-05 16:05:00,
2013-03-05 10:10:00,68.3,60.4,26.02,NE,51,5.0,5.0,76,0.00,,,0.00,255,Wunderground v.1.15,2013-03-05 16:10:00,
2013-03-05 10:15:00,68.3,60.1,26.02,NW,324,4.0,5.0,75,0.00,,,0.00,348,Wunderground v.1.15,2013-03-05 16:15:00,
2013-03-05 10:25:00,68.8,60.6,26.01,ENE,69,4.0,4.0,75,0.00,,,0.00,339,Wunderground v.1.15,2013-03-05 16:25:00,
2013-03-05 10:35:00,69.3,60.7,26.01,NW,325,4.0,6.0,74,0.00,,,0.00,334,Wunderground v.1.15,2013-03-05 16:35:00,
2013-03-05 10:40:00,69.3,61.0,26.01,North,355,5.0,7.0,75,0.00,,,0.00,385,Wunderground v.1.15,2013-03-05 16:40:00,
2013-03-05 10:45:00,69.3,61.0,26.00,NNW,334,5.0,7.0,75,0.00,,,0.00,339,Wunderground v.1.15,2013-03-05 16:45:00,
2013-03-05 10:50:00,69.3,60.7,26.00,NE,34,5.0,5.0,74,0.00,,,0.00,432,Wunderground v.1.15,2013-03-05 16:50:00,
2013-03-05 11:00:00,70.5,61.0,26.00,NE,46,4.0,5.0,72,0.00,,,0.00,1232,Wunderground v.1.15,2013-03-05 17:00:00,
2013-03-05 11:05:00,71.2,61.3,26.00,NNE,30,4.0,7.0,71,0.00,,,0.00,1232,Wunderground v.1.15,2013-03-05 17:05:00,
2013-03-05 11:15:00,72.2,61.5,25.99,NE,55,5.0,8.0,69,0.00,,,0.00,983,Wunderground v.1.15,2013-03-05 17:15:00,
2013-03-05 11:20:00,73.1,61.5,25.99,North,350,4.0,4.0,67,0.00,,,0.00,1034,Wunderground v.1.15,2013-03-05 17:20:00,
2013-03-05 11:25:00,73.1,61.5,25.99,NW,317,5.0,6.0,67,0.00,,,0.00,1034,Wunderground v.1.15,2013-03-05 17:25:00,
2013-03-05 11:30:00,73.1,61.9,25.99,SSE,153,5.0,5.0,68,0.00,,,0.00,977,Wunderground v.1.15,2013-03-05 17:30:00,
2013-03-05 11:35:00,73.2,62.0,25.98,ESE,107,6.0,6.0,68,0.00,,,0.00,977,Wunderground v.1.15,2013-03-05 17:35:00,
2013-03-05 11:40:00,72.4,61.2,25.99,NW,321,6.0,10.0,68,0.00,,,0.00,1218,Wunderground v.1.15,2013-03-05 17:40:00,
2013-03-05 11:50:00,71.4,61.5,25.98,ESE,109,7.0,11.0,71,0.00,,,0.00,508,Wunderground v.1.15,2013-03-05 17:50:00,
2013-03-05 11:55:00,71.0,61.5,25.98,East,87,7.0,11.0,72,0.00,,,0.00,506,Wunderground v.1.15,2013-03-05 17:55:00,
2013-03-05 12:00:00,71.0,61.5,25.98,North,360,6.0,8.0,72,0.00,,,0.00,494,Wunderground v.1.15,2013-03-05 18:00:00,
2013-03-05 12:05:00,71.9,61.6,25.98,NNE,21,5.0,8.0,70,0.00,,,0.00,536,Wunderground v.1.15,2013-03-05 18:05:00,
2013-03-05 12:10:00,72.2,61.5,25.97,East,100,5.0,5.0,69,0.00,,,0.00,842,Wunderground v.1.15,2013-03-05 18:10:00,
2013-03-05 12:20:00,71.7,61.0,25.97,NNE,27,6.0,9.0,69,0.00,,,0.00,835,Wunderground v.1.15,2013-03-05 18:20:00,
2013-03-05 12:25:00,72.0,61.3,25.97,WNW,294,6.0,9.0,69,0.00,,,0.00,1032,Wunderground v.1.15,2013-03-05 18:25:00,
2013-03-05 12:30:00,72.4,60.8,25.97,East,80,6.0,6.0,67,0.00,,,0.00,949,Wunderground v.1.15,2013-03-05 18:30:00,
2013-03-05 12:35:00,72.9,61.3,25.96,NW,323,5.0,6.0,67,0.00,,,0.00,1014,Wunderground v.1.15,2013-03-05 18:35:00,
2013-03-05 12:45:00,72.9,61.3,25.96,SSE,150,6.0,6.0,67,0.00,,,0.00,717,Wunderground v.1.15,2013-03-05 18:45:00,
2013-03-05 12:50:00,73.2,61.2,25.96,SSW,205,6.0,6.0,66,0.00,,,0.00,640,Wunderground v.1.15,2013-03-05 18:50:00,
2013-03-05 13:00:00,73.9,61.8,25.96,NNW,346,4.0,13.0,66,0.00,,,0.00,615,Wunderground v.1.15,2013-03-05 19:00:00,
2013-03-05 13:05:00,73.2,61.6,25.96,East,92,4.0,13.0,67,0.00,,,0.00,566,Wunderground v.1.15,2013-03-05 19:05:00,
2013-03-05 13:15:00,73.2,61.2,25.95,ESE,120,5.0,5.0,66,0.00,,,0.00,577,Wunderground v.1.15,2013-03-05 19:15:00,
2013-03-05 13:25:00,72.9,61.7,25.95,East,83,4.0,8.0,68,0.00,,,0.00,527,Wunderground v.1.15,2013-03-05 19:25:00,
2013-03-05 13:30:00,72.9,61.7,25.95,NNW,332,5.0,5.0,68,0.00,,,0.00,497,Wunderground v.1.15,2013-03-05 19:30:00,
2013-03-05 13:40:00,73.8,61.7,25.94,North,355,6.0,6.0,66,0.00,,,0.00,615,Wunderground v.1.15,2013-03-05 19:40:00,
2013-03-05 13:45:00,73.2,61.6,25.94,SW,227,6.0,8.0,67,0.00,,,0.00,534,Wunderground v.1.15,2013-03-05 19:45:00,
2013-03-05 13:55:00,73.2,61.6,25.93,ESE,104,5.0,9.0,67,0.00,,,0.00,1030,Wunderground v.1.15,2013-03-05 19:55:00,
2013-03-05 14:05:00,74.1,62.0,25.93,ENE,78,6.0,11.0,66,0.00,,,0.00,373,Wunderground v.1.15,2013-03-05 20:05:00,
2013-03-05 14:10:00,73.6,61.5,25.93,NNE,30,6.0,6.0,66,0.00,,,0.00,452,Wunderground v.1.15,2013-03-05 20:10:00,
2013-03-05 14:15:00,72.7,61.9,25.93,East,96,6.0,8.0,69,0.00,,,0.00,294,Wunderground v.1.15,2013-03-05 20:15:00,
2013-03-05 14:20:00,72.6,61.8,25.93,NE,49,5.0,6.0,69,0.00,,,0.00,271,Wunderground v.1.15,2013-03-05 20:20:00,
2013-03-05 14:25:00,72.0,61.7,25.93,ENE,76,5.0,6.0,70,0.00,,,0.00,330,Wunderground v.1.15,2013-03-05 20:25:00,
2013-03-05 14:35:00,71.5,61.6,25.93,NW,309,4.0,5.0,71,0.00,,,0.00,403,Wunderground v.1.15,2013-03-05 20:35:00,
2013-03-05 14:40:00,71.0,61.5,25.93,ENE,61,5.0,7.0,72,0.00,,,0.00,410,Wunderground v.1.15,2013-03-05 20:40:00,
2013-03-05 14:45:00,70.8,61.7,25.93,ENE,73,6.0,8.0,73,0.00,,,0.00,376,Wunderground v.1.15,2013-03-05 20:45:00,
2013-03-05 14:50:00,70.8,61.7,25.93,NE,36,5.0,5.0,73,0.00,,,0.00,329,Wunderground v.1.15,2013-03-05 20:50:00,
2013-03-05 14:55:00,70.7,61.6,25.93,NE,46,4.0,5.0,73,0.00,,,0.00,385,Wunderground v.1.15,2013-03-05 20:55:00,
2013-03-05 15:05:00,71.0,61.9,25.93,NW,321,4.0,8.0,73,0.00,,,0.00,288,Wunderground v.1.15,2013-03-05 21:05:00,
2013-03-05 15:10:00,71.2,61.7,25.93,NNW,335,3.0,3.0,72,0.00,,,0.00,209,Wunderground v.1.15,2013-03-05 21:10:00,
2013-03-05 15:15:00,71.0,61.9,25.93,NE,34,3.0,4.0,73,0.00,,,0.00,204,Wunderground v.1.15,2013-03-05 21:15:00,
2013-03-05 15:20:00,71.0,61.9,25.93,NNE,22,3.0,6.0,73,0.00,,,0.00,197,Wunderground v.1.15,2013-03-05 21:20:00,
2013-03-05 15:25:00,70.8,61.7,25.93,WNW,291,3.0,6.0,73,0.00,,,0.00,199,Wunderground v.1.15,2013-03-05 21:25:00,
2013-03-05 15:30:00,70.7,61.6,25.93,NNE,18,3.0,5.0,73,0.00,,,0.00,292,Wunderground v.1.15,2013-03-05 21:30:00,
2013-03-05 15:35:00,70.8,61.7,25.93,NW,317,3.0,5.0,73,0.00,,,0.00,320,Wunderground v.1.15,2013-03-05 21:35:00,
2013-03-05 15:45:00,70.8,60.9,25.93,East,85,4.0,4.0,71,0.00,,,0.00,130,Wunderground v.1.15,2013-03-05 21:45:00,
2013-03-05 15:50:00,70.7,61.2,25.93,SE,132,4.0,6.0,72,0.00,,,0.00,102,Wunderground v.1.15,2013-03-05 21:50:00,
2013-03-05 15:55:00,70.3,61.2,25.93,ENE,65,4.0,6.0,73,0.00,,,0.00,81,Wunderground v.1.15,2013-03-05 21:55:00,
2013-03-05 16:00:00,70.0,61.3,25.93,NW,320,4.0,4.0,74,0.00,,,0.00,42,Wunderground v.1.15,2013-03-05 22:00:00,
2013-03-05 16:05:00,69.7,61.4,25.94,ESE,107,4.0,5.0,75,0.00,,,0.00,51,Wunderground v.1.15,2013-03-05 22:05:00,
2013-03-05 16:10:00,69.5,61.6,25.94,NNW,347,4.0,4.0,76,0.00,,,0.00,88,Wunderground v.1.15,2013-03-05 22:10:00,
2013-03-05 16:15:00,69.3,61.4,25.94,ENE,66,4.0,4.0,76,0.00,,,0.00,151,Wunderground v.1.15,2013-03-05 22:15:00,
2013-03-05 16:25:00,69.3,61.4,25.94,ESE,115,4.0,4.0,76,0.00,,,0.00,105,Wunderground v.1.15,2013-03-05 22:25:00,
2013-03-05 16:30:00,69.5,61.2,25.94,SSE,153,4.0,4.0,75,0.00,,,0.00,86,Wunderground v.1.15,2013-03-05 22:30:00,
2013-03-05 16:35:00,69.5,61.2,25.94,NW,323,3.0,4.0,75,0.00,,,0.00,65,Wunderground v.1.15,2013-03-05 22:35:00,
2013-03-05 16:40:00,69.2,61.3,25.94,NNE,16,3.0,8.0,76,0.00,,,0.00,76,Wunderground v.1.15,2013-03-05 22:40:00,
2013-03-05 16:45:00,68.7,61.2,25.94,West,267,4.0,8.0,77,0.00,,,0.00,69,Wunderground v.1.15,2013-03-05 22:45:00,
2013-03-05 16:50:00,68.3,60.8,25.94,ESE,103,3.0,5.0,77,0.00,,,0.00,33,Wunderground v.1.15,2013-03-05 22:50:00,
2013-03-05 16:55:00,68.2,61.1,25.95,NE,51,4.0,5.0,78,0.00,,,0.00,21,Wunderground v.1.15,2013-03-05 22:55:00,
2013-03-05 17:00:00,68.0,61.2,25.94,WNW,292,4.0,5.0,79,0.00,,,0.00,25,Wunderground v.1.15,2013-03-05 23:00:00,
2013-03-05 17:10:00,68.0,60.9,25.95,East,93,3.0,6.0,78,0.00,,,0.00,28,Wunderground v.1.15,2013-03-05 23:10:00,
2013-03-05 17:15:00,68.0,60.9,25.95,SE,137,3.0,6.0,78,0.00,,,0.00,23,Wunderground v.1.15,2013-03-05 23:15:00,
2013-03-05 17:20:00,68.0,60.9,25.95,NNE,15,3.0,3.0,78,0.00,,,0.00,11,Wunderground v.1.15,2013-03-05 23:20:00,
2013-03-05 17:25:00,68.0,60.9,25.95,NE,52,2.0,3.0,78,0.00,,,0.00,7,Wunderground v.1.15,2013-03-05 23:25:00,
2013-03-05 17:30:00,68.0,61.2,25.95,NNW,330,2.0,2.0,79,0.00,,,0.00,0,Wunderground v.1.15,2013-03-05 23:30:00,
2013-03-05 17:40:00,68.0,61.6,25.96,East,81,1.0,1.0,80,0.00,,,0.00,0,Wunderground v.1.15,2013-03-05 23:40:00,
2013-03-05 17:50:00,67.8,61.4,25.96,NW,315,1.0,3.0,80,0.00,,,0.00,0,Wunderground v.1.15,2013-03-05 23:50:00,
2013-03-05 18:00:00,67.2,61.2,25.96,NNE,17,2.0,2.0,81,0.00,,,0.00,0,Wunderground v.1.15,2013-03-06 00:00:00,
2013-03-05 18:10:00,67.0,61.3,25.97,East,101,2.0,4.0,82,0.00,,,0.00,0,Wunderground v.1.15,2013-03-06 00:10:00,
2013-03-05 18:15:00,66.8,61.1,25.97,NW,321,2.0,4.0,82,0.00,,,0.00,0,Wunderground v.1.15,2013-03-06 00:15:00,
2013-03-05 18:20:00,66.7,61.4,25.97,South,172,2.0,2.0,83,0.00,,,0.00,0,Wunderground v.1.15,2013-03-06 00:20:00,
2013-03-05 18:30:00,66.3,61.0,25.97,NE,46,2.0,2.0,83,0.00,,,0.00,0,Wunderground v.1.15,2013-03-06 00:30:00,
2013-03-05 18:40:00,66.3,61.3,25.97,West,279,3.0,3.0,84,0.00,,,0.00,0,Wunderground v.1.15,2013-03-06 00:40:00,
2013-03-05 18:45:00,66.3,61.3,25.97,NNE,23,2.0,4.0,84,0.00,,,0.00,0,Wunderground v.1.15,2013-03-06 00:45:00,
2013-03-05 18:55:00,66.3,61.0,25.98,NNE,32,2.0,2.0,83,0.00,,,0.00,0,Wunderground v.1.15,2013-03-06 00:55:00,
2013-03-05 19:05:00,66.5,61.2,25.98,East,99,2.0,2.0,83,0.00,,,0.00,0,Wunderground v.1.15,2013-03-06 01:05:00,
2013-03-05 19:15:00,66.7,61.0,25.98,West,281,1.0,3.0,82,0.00,,,0.00,0,Wunderground v.1.15,2013-03-06 01:15:00,
2013-03-05 19:20:00,66.5,61.2,25.98,SSE,159,2.0,2.0,83,0.00,,,0.00,0,Wunderground v.1.15,2013-03-06 01:20:00,
2013-03-05 19:25:00,66.5,61.2,25.98,NE,44,2.0,2.0,83,0.00,,,0.00,0,Wunderground v.1.15,2013-03-06 01:25:00,
2013-03-05 19:30:00,66.5,61.2,25.98,NNE,23,2.0,3.0,83,0.00,,,0.00,0,Wunderground v.1.15,2013-03-06 01:30:00,
2013-03-05 19:35:00,66.3,61.3,25.99,SW,230,2.0,3.0,84,0.00,,,0.00,0,Wunderground v.1.15,2013-03-06 01:35:00,
2013-03-05 19:45:00,66.5,61.2,25.99,East,95,1.0,2.0,83,0.00,,,0.00,0,Wunderground v.1.15,2013-03-06 01:45:00,
2013-03-05 19:50:00,66.8,61.1,25.99,East,95,0.0,0.0,82,0.00,,,0.00,0,Wunderground v.1.15,2013-03-06 01:50:00,
2013-03-05 19:55:00,66.8,61.1,26.00,East,95,0.0,0.0,82,0.00,,,0.00,0,Wunderground v.1.15,2013-03-06 01:55:00,
2013-03-05 20:00:00,67.0,61.0,25.99,NNE,22,0.0,2.0,81,0.00,,,0.00,0,Wunderground v.1.15,2013-03-06 02:00:00,
2013-03-05 20:05:00,66.7,60.7,26.00,North,360,1.0,2.0,81,0.00,,,0.00,0,Wunderground v.1.15,2013-03-06 02:05:00,
2013-03-05 20:15:00,66.3,60.6,26.00,ESE,113,1.0,2.0,82,0.00,,,0.00,0,Wunderground v.1.15,2013-03-06 02:15:00,
2013-03-05 20:20:00,66.3,60.6,26.00,South,185,1.0,1.0,82,0.00,,,0.00,0,Wunderground v.1.15,2013-03-06 02:20:00,
2013-03-05 20:25:00,66.3,60.6,26.00,NNE,18,1.0,2.0,82,0.00,,,0.00,0,Wunderground v.1.15,2013-03-06 02:25:00,
2013-03-05 20:30:00,66.2,60.9,26.00,East,80,1.0,1.0,83,0.00,,,0.00,0,Wunderground v.1.15,2013-03-06 02:30:00,
2013-03-05 20:35:00,66.2,60.9,26.00,NW,305,1.0,1.0,83,0.00,,,0.00,0,Wunderground v.1.15,2013-03-06 02:35:00,
2013-03-05 20:40:00,66.2,60.9,26.00,NW,305,1.0,1.0,83,0.00,,,0.00,0,Wunderground v.1.15,2013-03-06 02:40:00,
2013-03-05 20:45:00,66.2,60.9,26.00,North,5,0.0,3.0,83,0.00,,,0.00,0,Wunderground v.1.15,2013-03-06 02:45:00,
2013-03-05 20:50:00,66.3,60.6,26.00,East,84,1.0,1.0,82,0.00,,,0.00,0,Wunderground v.1.15,2013-03-06 02:50:00,
2013-03-05 21:00:00,66.2,61.2,26.01,NNW,346,2.0,2.0,84,0.00,,,0.00,0,Wunderground v.1.15,2013-03-06 03:00:00,
2013-03-05 21:05:00,66.0,61.4,26.00,West,281,2.0,2.0,85,0.00,,,0.00,0,Wunderground v.1.15,2013-03-06 03:05:00,
2013-03-05 21:10:00,65.9,61.3,26.00,NNE,30,1.0,1.0,85,0.00,,,0.00,0,Wunderground v.1.15,2013-03-06 03:10:00,
2013-03-05 21:15:00,65.7,61.4,26.00,NNW,348,1.0,1.0,86,0.00,,,0.00,0,Wunderground v.1.15,2013-03-06 03:15:00,
2013-03-05 21:20:00,65.7,61.4,26.00,North,11,1.0,1.0,86,0.00,,,0.00,0,Wunderground v.1.15,2013-03-06 03:20:00,
2013-03-05 21:30:00,65.7,60.7,26.00,NE,42,1.0,2.0,84,0.00,,,0.00,0,Wunderground v.1.15,2013-03-06 03:30:00,
2013-03-05 21:35:00,65.7,60.7,26.01,SSE,150,1.0,2.0,84,0.00,,,0.00,0,Wunderground v.1.15,2013-03-06 03:35:00,
2013-03-05 21:40:00,65.7,60.7,26.01,WNW,298,2.0,2.0,84,0.00,,,0.00,0,Wunderground v.1.15,2013-03-06 03:40:00,
2013-03-05 21:45:00,65.7,61.1,26.01,NW,320,2.0,2.0,85,0.00,,,0.00,0,Wunderground v.1.15,2013-03-06 03:45:00,
2013-03-05 21:55:00,65.5,61.5,26.01,ESE,107,2.0,2.0,87,0.00,,,0.00,0,Wunderground v.1.15,2013-03-06 03:55:00,
2013-03-05 22:00:00,65.5,61.5,26.01,ESE,121,2.0,5.0,87,0.00,,,0.00,0,Wunderground v.1.15,2013-03-06 04:00:00,
2013-03-05 22:10:00,65.2,61.6,26.00,East,96,3.0,3.0,88,0.00,,,0.00,0,Wunderground v.1.15,2013-03-06 04:10:00,
2013-03-05 22:20:00,65.1,61.1,26.00,East,82,2.0,2.0,87,0.00,,,0.00,0,Wunderground v.1.15,2013-03-06 04:20:00,
2013-03-05 22:30:00,65.1,60.8,26.00,NNE,26,2.0,2.0,86,0.00,,,0.00,0,Wunderground v.1.15,2013-03-06 04:30:00,
2013-03-05 22:35:00,65.1,60.8,26.00,East,82,1.0,2.0,86,0.00,,,0.00,0,Wunderground v.1.15,2013-03-06 04:35:00,
2013-03-05 22:40:00,65.1,60.8,26.00,East,100,2.0,2.0,86,0.00,,,0.00,0,Wunderground v.1.15,2013-03-06 04:40:00,
2013-03-05 22:45:00,64.9,60.6,26.00,NNE,19,2.0,2.0,86,0.00,,,0.00,0,Wunderground v.1.15,2013-03-06 04:45:00,
2013-03-05 22:50:00,64.9,60.9,26.00,ESE,106,2.0,2.0,87,0.00,,,0.00,0,Wunderground v.1.15,2013-03-06 04:50:00,
2013-03-05 23:00:00,64.6,60.6,26.00,ENE,76,1.0,1.0,87,0.00,,,0.00,0,Wunderground v.1.15,2013-03-06 05:00:00,
2013-03-05 23:05:00,64.6,61.0,26.00,ESE,121,1.0,4.0,88,0.00,,,0.00,0,Wunderground v.1.15,2013-03-06 05:05:00,
2013-03-05 23:10:00,64.6,60.6,26.00,NE,51,2.0,2.0,87,0.00,,,0.00,0,Wunderground v.1.15,2013-03-06 05:10:00,
2013-03-05 23:15:00,64.4,60.4,26.00,ESE,116,2.0,2.0,87,0.00,,,0.00,0,Wunderground v.1.15,2013-03-06 05:15:00,
2013-03-05 23:20:00,64.4,60.8,26.00,ENE,57,2.0,2.0,88,0.00,,,0.00,0,Wunderground v.1.15,2013-03-06 05:20:00,
2013-03-05 23:25:00,64.4,60.8,26.00,North,5,1.0,2.0,88,0.00,,,0.00,0,Wunderground v.1.15,2013-03-06 05:25:00,
2013-03-05 23:30:00,64.2,60.6,26.00,SE,125,1.0,2.0,88,0.00,,,0.00,0,Wunderground v.1.15,2013-03-06 05:30:00,
2013-03-05 23:40:00,64.1,60.5,26.00,ESE,103,1.0,4.0,88,0.00,,,0.00,0,Wunderground v.1.15,2013-03-06 05:40:00,
2013-03-05 23:45:00,64.1,60.8,25.99,North,5,2.0,4.0,89,0.00,,,0.00,0,Wunderground v.1.15,2013-03-06 05:45:00,
2013-03-05 23:50:00,64.1,60.8,25.99,NNW,334,2.0,4.0,89,0.00,,,0.00,0,Wunderground v.1.15,2013-03-06 05:50:00,
2013-03-05 23:55:00,64.1,60.8,25.99,NNE,30,2.0,4.0,89,0.00,,,0.00,0,Wunderground v.1.15,2013-03-06 05:55:00,